Starlink 11661

operational
NORAD ID: 63676 Int'l Des: 2025-085 Owner: SPXS Country: US Constellation: starlink
LEOCIRCULAR

Über Starlink 11661

Beschreibung wird geladen...

Live-Position

3D-Globus wird geladen...

Nächste Überflüge

Höhenverlauf

Altitude vs Time

uPlot chart will show altitude changes over time

Zweizeiliger Elementsatz

1 63676U 25085N 25303.52658083 .00265920 00000-0 19959-2 0 9997
2 63676 42.9989 342.7181 0004292 255.4614 104.5778 15.71005326 30422
Epoch: 30. Okt. 2025 • Age: 17 hours

Aktueller Status

Höhe 358.4 km
Geschwindigkeit 7.70 km/s
Subsatellitenpunkt 32.20°N, 103.7°W
Startdatum 28. Apr. 2025
Alter 0.5 years
Typ internet

Technische Details

Klassifizierung Payload
Masse 960.00 kg
Trockenmasse 910.00 kg
Gesamtmasse 960.00 kg
Länge 0.30 m
Durchmesser 4.10 m
Spannweite 29.00 m
Form Box + pan
Hersteller SPXS
Bus-Typ Starlink V2MD
Phasenstatus In Orbit
Besitzer/Staat SPXS/US

Große Konstellationen

Loading constellations...